Location: �bnet
(46.9957°N, 8.4908°E)
Time: 03:33:58
(UTC+00:00)

Cosmos 1610 Rocket - Pass Details

Date: 11 May 2021
Orbit: 952 x 1003 km, 82.9° (Epoch: 23 June)

Event Time Altitude Azimuth Distance (km) Brightness Sun altitude
Rises 21:32:42 0° 349° (N) 3,648 8.8 -20.4°
Reaches altitude 10° 21:35:12 10° 348° (NNW) 2,695 7.9 -20.6°
Maximum altitude 21:41:21 76° 264° (W) 986 4.5 -21.0°
Enters shadow 21:44:05 35° 186° (S) 1,494 5.0 -21.2°
